Regional Weather Roundup
Issued by NWS Sterling, VA

Home | Current Version | Previous Version | Graphics & Text | Print | Product List | Glossary On
Versions: 1 2 3 4 5 6 7 8 9 10 11 12 13 14 15 16 17 18 19 20 21 22 23 24 25 26 27 28 29 30 31 32 33 34 35 36 37 38 39 40 41 42 43 44 45 46 47 48 49 50
000
ASUS41 KLWX 180110
RWRLWX

REGIONAL WEATHER ROUNDUP
NATIONAL WEATHER SERVICE BALTIMORE MD/WASHINGTON DC
800 PM EST WED DEC 17 2014

Note: "FAIR" indicates few or no clouds below 12,000 feet
with no significant weather and/or obstructions to visibility.
 TC=TEMPERATURE CELSIUS

 * =Non NWS site. Station does not report precipitation (e.g. rain,
    snow, etc.), thunder, or fog.

DCZ001-MDZ009-015-VAZ040>042-051-053>054-180200-
WASHINGTON METRO

CITY           SKY/WX    TMP DP  RH WIND       PRES   REMARKS
WASHINGTON NAT CLEAR     45  25  45 NW13      30.05R
DULLES         PTCLDY    38  26  62 NW14G24   30.05R
ANDREWS AFB    CLEAR     41  25  52 NW12      30.03
FT BELVOIR     CLEAR     42  26  52 NW9       30.05R
QUANTICO       CLEAR     43  26  51 N12G20    30.06R
COLLEGE PARK*  CLEAR     43  28  56 NW8       30.04R
LEESBURG*      CLOUDY    39  30  70 MISG      30.07R
MANASSAS*      CLEAR     39  28  65 NW10      30.05R
GAITHERSBURG*  CLEAR     36  23  60 NW5       30.09R

$$

MDZ006>007-011-014-180200-
BALTIMORE METRO

CITY           SKY/WX    TMP DP  RH WIND       PRES   REMARKS
BWI AIRPORT    PTCLDY    40  24  53 NW15G23   30.03R
MD SCIENCE CTR   N/A     41  24  51 MISG      30.03R
MARTIN STATE   PTCLDY    41  28  60 W14       30.05R
ANNAPOLIS      CLEAR     43  28  55 NW12      30.03R
FORT MEADE*    CLEAR     37  28  70 NW5       30.06R

$$

MDZ012-015-019>023-180200-
MARYLAND EASTERN SHORE

CITY           SKY/WX    TMP DP  RH WIND       PRES   REMARKS
OCEAN CITY     CLEAR     41  32  70 NW7       30.00R
SALISBURY      CLEAR     41  32  70 CALM      30.00R
BAY BRIDGE AP*   N/A     43  30  61 NW10G16   30.03R
EASTON*        PTCLDY    45  30  57 NW12G17   30.04R

$$

MDZ017>025-180200-
SOUTHERN MARYLAND

CITY           SKY/WX    TMP DP  RH WIND       PRES   REMARKS
PATUXENT RIVER PTCLDY    44  28  53 NW14      30.02R
ST INIGOES     CLEAR     46  28  49 NW7       30.02R
LEONARDTOWN*   CLEAR     43  28  56 CALM      30.04R

$$

MDZ003>005-180200-
NORTH CENTRAL MARYLAND

CITY           SKY/WX    TMP DP  RH WIND       PRES   REMARKS
FREDERICK*     PTCLDY    39  23  52 NW8       30.08R
HAGERSTOWN APT CLOUDY    38  24  57 NW13      30.04R
WESTMINSTER*   CLOUDY    37  25  60 W3        30.02R

$$

MDZ501>502-180200-
WESTERN MARYLAND

CITY           SKY/WX    TMP DP  RH WIND       PRES   REMARKS
OAKLAND*       CLOUDY    25 N/A N/A W16G24    29.99R WCI  12
CUMBERLAND*    CLOUDY    36  23  60 W10G21    30.12R WCI  28

$$

VAZ025>031-180200-
SHENANDOAH VALLEY

CITY           SKY/WX    TMP DP  RH WIND       PRES   REMARKS
WINCHESTER*    CLOUDY    37  23  56 W10       30.06R
FRONT ROYAL*   FAIR      36  27  69 CALM      30.05R
LURAY*         FAIR      43  23  45 SW5       30.05R
NEW MARKET*    FAIR      36  23  59 N6        30.05S
STAUNTON*      CLEAR     38  22  52 CALM      30.06S
WAYNESBORO*    FAIR      37  23  57 W9        30.04S

$$

WVZ021-048>050-054>055-180200-
EASTERN WEST VIRGINIA PANHANDLE

CITY           SKY/WX    TMP DP  RH WIND       PRES   REMARKS
MARTINSBURG    MOCLDY    39  22  50 W18G26    30.06R
PETERSBURG*    MOCLDY    37  22  55 S3        30.09S

$$

VAZ036>039-050-180200-
CENTRAL FOOTHILLS

CITY           SKY/WX    TMP DP  RH WIND       PRES   REMARKS
CHARLOTTESVILL CLEAR     44  23  43 NW6       30.04R
CULPEPER*      CLEAR     39  28  65 N6        30.05R
ORANGE*        CLEAR     37  28  70 NW7       30.05R
GORDONSVILLE*  FAIR      44  24  45 W6        30.03R
WARRENTON*     FAIR      40  32  72 CALM      30.04R

$$

VAZ055>057-180200-
NORTH AND CENTRAL PIEDMONT

CITY           SKY/WX    TMP DP  RH WIND       PRES   REMARKS
FREDERICKSBRG* CLEAR     44  31  58 N6        30.04R
STAFFORD*      CLEAR     38  26  62 CALM      30.09R

$$

NCZ024-NYZ072-PAZ021-071-VAZ022-071-180200-
OTHER REGIONAL OBSERVATIONS

CITY           SKY/WX    TMP DP  RH WIND       PRES   REMARKS
NEW YORK CITY  CLOUDY    45  35  68 VRB3      29.91R
PHILADELPHIA   PTCLDY    44  26  49 W13       29.98R
PITTSBURGH     FLURRIES  31  23  72 W10       30.10R WCI  22
ROANOKE        CLEAR     42  26  53 NW8       30.09S
RICHMOND       MOCLDY    49  34  56 W6        30.02R
RALEIGH        MOCLDY    46  36  68 CALM      30.07R

$$

ANZ530>537-180200-
MARINE OBSERVATIONS

STATION/POSITION TIME  TEMP    WIND        PRES
                       AIR SEA DIR/SP/G
                 (UTC) (F)     (DEG/KT/KT) (MB)
THOMAS PT LIGHT  0100   43 43  330/ 12/ 14 1018.0R
BALT KEY BRIDGE  0100   43     290/ 16/ 18 1016.7R
COVE POINT       0100   45     340/ 14/ 17 1016.4R
LEWISETTA        0100   46 45  350/  6/  9 1016.3R
SOLOMONS ISLAND  0100      45                N/A
PINEY POINT      0100          350/  9/  9   N/A

$$




USA.gov is the U.S. government's official web portal to all federal, state and local government web resources and services.